Temperature
21 21 21 21 21 21 22 22 23 23 23 24 23 23 22 21 20 18 18 18 18 17 17 17 17 17 17 17 17 17 17 17 17 17 17 17 17 17 17 17 17 17 17 17 18 18 18 18 18
21 21 21 21 22 22 22 22 23 23 23 23 23 23 22 20 19 18 18 18 18 17 17 17 17 17 17 17 17 17 17 17 17 17 17 17 17 17 17 17 17 17 17 17 18 18 18 18 18
21 21 22 22 23 22 22 23 23 24 23 24 23 22 21 20 19 18 18 18 18 17 17 17 17 17 17 17 17 17 17 17 17 17 17 17 17 17 17 17 17 17 17 17 17 17 18 17 18
21 22 23 22 22 23 23 23 24 24 24 23 23 21 19 19 18 18 18 18 18 17 17 18 17 17 17 17 17 17 17 17 17 17 17 17 17 17 17 17 17 17 17 17 17 17 17 17 18
22 23 23 22 23 24 24 24 24 24 24 23 22 20 19 18 18 18 18 18 18 17 17 18 17 17 17 17 17 17 17 17 17 17 17 17 17 17 17 17 17 17 17 17 17 17 17 17 17
23 24 23 22 23 24 24 24 24 24 23 23 22 20 18 18 18 18 18 18 18 18 18 18 17 17 17 17 17 17 17 17 17 17 17 17 17 17 17 17 17 17 17 17 17 17 17 17 17
23 23 23 23 23 23 24 24 24 24 23 23 22 21 19 18 18 18 18 18 18 18 18 18 17 17 17 17 17 17 17 17 17 17 17 17 17 17 17 17 17 17 17 17 17 17 17 17 17
23 23 24 24 23 23 24 24 23 23 23 22 22 21 19 18 18 18 18 18 18 18 18 18 17 17 17 17 17 17 17 17 17 17 17 17 17 17 17 17 17 17 17 17 17 17 17 17 17
23 23 23 23 23 23 24 24 23 23 22 22 21 20 19 19 19 19 18 18 18 18 18 18 18 17 17 17 17 17 17 17 17 17 17 17 17 17 17 17 17 17 17 17 17 17 17 17 17
24 22 23 24 25 24 24 24 23 23 23 22 21 20 19 19 19 19 19 19 18 18 18 18 18 18 18 17 17 17 17 17 17 17 17 17 17 17 17 17 17 17 17 17 17 17 17 17 17
25 23 24 25 25 24 24 24 24 23 22 22 21 20 19 19 19 19 19 19 18 18 18 18 18 18 18 18 17 17 17 17 17 17 17 17 17 17 17 17 17 17 17 17 17 17 17 17 17
25 25 25 24 24 24 24 24 23 23 22 22 21 20 20 19 19 19 19 19 19 18 18 18 18 18 18 18 18 18 17 17 17 17 17 17 17 17 17 17 17 17 17 17 17 17 17 17 17
25 24 24 24 24 24 23 23 23 22 22 21 21 20 20 20 20 20 20 19 19 18 18 18 18 18 18 18 18 18 17 17 17 17 17 17 17 17 17 17 17 17 17 17 17 17 17 17 17
25 24 24 24 24 24 24 23 23 22 22 21 21 20 20 20 20 20 20 19 19 19 18 18 18 18 18 18 18 17 17 17 17 17 17 17 17 17 17 17 17 17 17 17 17 17 17 17 17
24 24 24 24 24 24 24 23 23 22 22 22 21 21 20 20 20 20 20 19 19 19 19 18 18 18 18 18 17 17 17 17 17 17 17 17 17 17 17 17 17 17 17 17 17 17 17 17 16
25 24 23 24 24 24 23 22 23 22 22 22 21 21 20 20 20 20 20 20 19 19 19 18 18 18 18 17 17 17 17 17 17 17 17 17 17 17 17 17 16 16 16 17 17 16 16 16 16
24 23 23 24 25 25 24 22 23 22 22 22 21 21 20 20 20 20 20 20 19 19 19 18 18 18 18 17 17 17 17 17 17 17 17 17 17 17 16 16 16 16 16 16 16 16 16 16 16
23 24 24 24 25 25 24 23 23 23 22 22 22 21 21 20 20 20 20 19 19 19 19 18 18 18 17 17 17 17 17 16 16 16 16 16 16 16 16 16 16 16 16 16 16 16 16 16 16
25 24 24 25 25 25 24 23 23 23 23 22 22 22 21 21 20 20 20 19 19 19 19 18 18 17 17 17 17 17 16 16 16 16 16 16 16 16 16 16 16 16 16 16 16 16 16 16 16
25 24 24 25 25 25 24 24 24 24 23 23 22 22 22 21 21 20 20 19 19 19 19 18 18 17 17 17 17 17 16 16 16 16 16 16 16 16 16 16 16 16 16 16 16 16 16 16 16
25 24 24 24 25 25 24 23 24 24 24 23 23 22 22 21 21 20 20 19 19 19 18 18 18 17 17 17 17 16 16 16 16 16 16 16 16 16 16 16 16 16 16 16 15 15 16 16 16
24 25 25 24 23 23 24 22 23 24 23 23 23 22 22 22 21 20 20 19 19 19 18 18 18 17 17 17 17 17 16 16 16 16 16 16 16 16 16 16 15 15 15 15 15 15 15 15 15
25 25 25 25 24 23 24 23 23 24 23 23 23 23 22 22 21 21 20 19 19 19 18 18 18 18 17 17 17 16 16 16 16 16 16 16 16 16 15 15 15 15 15 15 15 15 15 15 15
25 24 24 24 23 22 24 23 23 24 24 24 24 23 22 22 21 21 20 20 19 19 18 18 18 17 17 17 17 16 16 16 16 16 16 16 16 16 16 15 15 15 15 15 15 15 15 15 15
24 23 21 21 21 22 25 24 24 25 26 25 24 23 23 22 22 21 20 20 19 19 18 18 18 17 17 17 17 16 16 16 16 16 16 16 16 16 15 15 15 15 15 15 15 15 15 15 15
24 23 21 21 22 23 24 24 24 26 26 25 24 24 23 22 22 21 20 20 19 19 18 18 17 17 17 17 17 17 16 16 16 16 16 16 15 15 15 15 15 15 15 15 15 15 15 15 15
24 24 24 23 23 23 24 24 25 25 25 25 25 24 23 22 22 21 21 20 19 18 18 18 17 17 17 17 17 17 16 16 16 16 16 15 15 15 15 15 15 15 15 15 15 15 15 15 14
25 24 24 23 22 22 23 23 23 24 24 25 24 24 23 23 22 21 21 20 19 19 18 18 17 17 17 17 17 17 16 16 16 16 16 15 15 15 15 15 15 15 15 15 15 15 14 14 14
24 24 23 23 23 22 21 22 25 24 25 24 24 24 23 23 22 21 21 20 19 19 18 18 17 17 17 17 17 17 16 16 16 16 16 15 15 15 15 15 15 15 15 15 15 15 15 14 14
24 24 23 21 22 23 22 22 26 25 25 25 24 24 23 23 22 21 21 20 19 19 18 18 18 17 17 17 17 16 16 16 16 16 16 16 15 15 15 15 15 15 15 15 15 14 15 14 14
Wind_Speed
8 10 6 2 2 0 4 6 7 7 6 8 8 10 12 12 8 7 2 6 10 10 13 14 14 14 13 13 13 13 14 13 13 13 14 13 13 13 12 12 12 12 12 12 12 11 11 11 11
9 5 3 2 1 2 5 7 10 9 6 5 8 12 12 11 9 7 4 6 9 11 13 14 14 14 14 13 13 13 13 13 13 13 13 13 13 12 12 11 12 12 12 12 12 11 11 11 10
10 6 3 2 1 4 5 7 9 8 7 6 7 10 8 6 7 5 4 7 10 11 14 13 14 13 13 13 13 13 13 12 12 12 13 13 12 12 12 11 12 12 12 12 11 11 11 10 10
4 2 2 1 6 8 8 7 6 7 7 7 8 9 8 7 5 6 7 9 10 11 14 13 13 13 13 12 12 12 12 12 11 11 11 11 12 12 12 12 11 11 11 11 11 11 11 10 10
3 2 1 2 6 8 7 7 6 7 7 8 10 10 8 8 9 8 7 7 10 10 13 13 13 13 12 12 11 11 11 10 10 10 10 10 11 11 11 11 11 11 11 11 10 10 10 10 10
3 2 1 3 7 7 6 6 7 8 8 9 10 10 7 7 7 6 7 7 9 9 11 13 13 12 12 11 11 10 10 9 8 7 7 8 9 10 11 11 11 10 10 10 9 9 9 9 9
2 2 1 5 7 6 5 6 6 7 8 7 7 8 7 7 6 6 7 8 8 8 9 10 12 12 11 11 10 9 8 7 5 5 5 6 7 8 10 11 10 10 9 8 8 7 8 8 8
3 2 1 4 6 6 6 6 7 8 7 6 5 7 7 8 6 6 7 8 7 6 7 7 9 10 11 10 9 7 6 5 4 3 3 4 6 7 9 10 9 9 8 7 6 5 5 5 5
2 1 2 4 5 5 6 6 6 6 8 8 9 11 11 11 8 7 6 7 7 6 5 5 6 7 8 9 8 6 5 4 4 4 3 3 6 7 8 9 8 7 6 4 3 3 2 2 2
1 2 3 4 6 6 6 6 6 6 8 9 11 13 13 10 8 7 6 7 7 6 5 4 4 5 6 6 7 4 4 3 2 3 4 4 6 8 9 8 6 5 4 2 0 2 2 2 1
2 3 3 6 6 6 6 5 5 5 5 8 12 12 11 10 7 6 7 7 6 5 4 4 3 4 4 4 4 3 3 3 5 5 6 7 6 5 7 5 5 4 3 1 1 2 2 2 2
4 4 4 5 5 4 4 5 5 6 5 9 11 12 10 8 7 5 6 7 6 5 3 2 3 3 4 5 3 3 4 4 5 6 8 7 3 3 4 4 3 2 2 1 1 2 4 4 5
4 4 5 5 4 4 5 5 5 5 6 10 12 11 9 8 7 6 6 7 6 6 4 2 2 3 4 4 2 5 4 4 6 6 6 7 3 3 3 3 4 4 4 2 2 3 5 5 7
4 5 5 4 4 4 4 4 4 5 6 9 10 9 8 7 6 6 6 6 6 6 6 4 2 4 4 4 3 4 4 4 5 4 5 6 5 3 3 4 3 4 4 4 4 4 4 4 5
5 5 4 4 3 4 3 3 5 7 8 8 8 8 8 7 6 5 5 5 6 6 6 5 4 4 4 5 4 4 4 6 4 4 6 6 5 5 4 3 3 3 5 6 6 5 4 4 4
7 5 4 5 5 4 4 3 7 9 8 8 8 8 7 6 6 5 5 5 5 6 7 7 4 3 5 5 4 3 5 4 4 5 6 6 6 7 5 3 2 4 5 4 3 3 4 4 4
6 5 5 5 7 5 5 3 7 9 9 8 8 8 8 7 6 5 5 5 5 5 7 7 5 4 5 4 3 4 4 3 4 5 6 7 7 8 6 3 2 5 3 3 3 4 3 3 3
4 4 4 5 6 6 5 4 7 9 10 9 9 9 9 9 7 7 6 5 4 4 5 6 5 6 5 3 3 3 3 3 4 4 5 6 7 8 6 3 4 5 3 4 3 4 3 2 2
4 4 3 3 4 6 6 6 7 9 9 9 9 9 10 10 9 8 8 7 5 5 5 5 5 5 4 3 3 2 2 2 3 3 5 6 7 7 5 4 4 4 4 4 4 3 3 2 2
7 5 4 3 4 5 5 6 7 10 11 10 10 9 8 8 9 9 8 7 6 6 5 5 6 6 5 3 3 2 2 2 3 3 4 6 7 7 5 4 3 3 3 4 4 4 3 2 2
7 6 5 4 5 6 5 6 7 9 10 10 10 9 8 9 10 10 8 7 6 6 5 5 5 6 5 4 3 3 3 2 2 2 2 4 6 7 7 5 3 2 3 3 2 3 3 2 3
6 5 5 6 6 5 6 4 6 9 10 11 11 9 8 8 9 10 9 8 7 6 6 6 6 7 6 5 4 3 2 2 2 2 2 2 5 5 5 5 4 3 3 3 2 2 2 2 2
5 5 7 8 7 7 7 5 4 8 10 11 11 11 10 9 9 10 10 9 8 7 7 6 6 7 7 6 5 3 2 2 2 2 3 2 2 3 4 3 3 3 2 3 3 3 3 2 2
4 5 8 8 6 7 7 5 3 5 8 11 11 12 11 11 10 10 10 9 7 7 7 5 5 6 6 6 6 4 4 3 3 2 2 1 2 2 2 3 3 3 2 2 2 2 3 2 3
7 5 3 4 6 5 5 5 3 3 4 7 9 10 11 11 10 10 10 9 8 8 8 7 6 6 6 5 6 6 6 5 4 3 2 2 2 2 2 3 2 2 2 3 2 2 2 2 2
8 8 5 3 4 3 3 3 2 5 4 5 8 9 10 11 9 10 10 10 9 9 8 8 7 6 6 5 4 5 6 4 3 3 2 2 2 2 2 2 2 3 3 3 3 2 2 2 2
7 8 8 7 8 5 3 3 2 6 6 5 7 9 9 10 10 10 10 10 9 9 9 8 8 7 7 6 4 4 5 4 4 3 3 3 3 3 3 3 2 3 3 3 3 2 2 3 2
10 8 6 5 4 4 4 4 3 6 7 6 6 8 9 10 10 10 10 11 10 9 8 8 8 8 7 6 5 4 5 4 4 3 3 3 3 3 3 2 3 3 2 2 2 1 1 2 1
9 10 7 5 6 4 3 1 1 4 5 6 5 6 7 9 9 9 9 10 10 10 9 8 8 7 7 6 6 6 5 4 4 3 3 3 3 3 3 3 3 3 2 2 2 1 1 1 1
9 9 8 5 6 6 4 1 1 4 4 4 4 5 6 7 8 8 8 9 9 9 9 8 8 7 7 6 6 7 6 5 4 3 3 3 3 3 3 3 3 2 2 2 2 1 1 1 1
Wind_Direction
262 245 243 255 265 154 67 67 72 60 56 52 53 64 70 55 55 89 98 70 87 90 88 84 80 76 74 71 68 66 66 66 66 64 62 62 63 64 67 68 68 68 66 65 62 61 60 58 55
278 271 267 247 251 90 72 78 74 66 72 68 64 68 70 65 70 93 96 86 90 90 86 84 83 79 76 73 70 68 67 69 67 64 61 62 62 63 66 68 68 68 67 65 62 59 58 55 53
268 265 269 269 14 71 91 84 90 83 68 66 67 62 57 63 71 91 110 109 93 92 91 87 86 83 79 74 70 70 69 69 68 65 62 61 62 62 64 67 68 67 66 65 62 60 58 55 52
263 265 246 66 65 69 91 98 99 95 77 65 78 73 70 57 77 108 115 106 100 100 98 96 92 87 83 77 73 72 70 68 68 66 63 62 63 63 63 66 68 68 68 67 63 61 59 54 48
244 252 201 104 83 83 86 91 89 81 77 72 79 88 82 72 94 109 109 106 104 104 106 104 99 92 86 84 79 76 74 70 68 67 65 65 66 68 67 66 68 68 69 68 64 63 61 54 45
258 250 193 106 97 91 86 86 91 92 89 87 94 97 88 101 101 106 112 105 102 107 111 114 112 104 93 85 84 81 79 76 74 75 76 76 76 75 72 69 70 71 71 70 68 65 61 55 45
284 300 130 112 103 98 89 75 74 89 86 77 92 99 110 113 116 113 107 104 102 107 114 125 133 123 110 99 93 93 90 86 86 92 99 101 99 92 84 74 73 75 75 73 71 69 63 55 46
297 297 98 101 107 101 98 88 74 80 82 82 84 105 125 131 129 118 111 108 106 106 112 117 121 125 127 119 112 112 115 118 125 131 135 138 130 115 99 85 79 78 77 77 76 79 73 63 49
272 260 66 78 102 108 115 102 90 93 95 87 79 95 120 131 131 125 118 116 113 107 107 113 116 118 124 128 129 147 151 162 174 184 202 182 164 138 105 95 95 89 86 86 93 103 106 100 65
199 64 65 64 93 110 109 105 113 112 109 106 103 107 121 130 136 133 126 118 112 111 109 108 103 111 107 102 121 143 132 140 167 127 100 81 77 94 102 117 120 117 117 114 180 211 211 219 219
122 97 84 80 86 103 112 110 103 108 113 123 128 130 134 138 139 132 123 117 112 109 100 105 111 112 119 107 99 92 96 84 48 42 67 65 68 98 116 131 147 154 154 171 191 237 233 172 102
113 102 91 93 90 98 103 100 85 82 96 117 125 133 138 141 138 134 124 121 119 112 108 111 108 118 109 91 89 74 59 64 52 26 54 59 44 50 69 79 63 101 105 72 40 29 31 43 61
123 111 100 106 109 103 102 97 94 94 108 123 128 137 146 149 148 142 133 126 125 124 118 84 78 82 96 101 90 83 61 48 64 23 43 64 50 43 61 72 44 44 47 45 40 44 39 39 41
114 118 125 132 130 134 127 131 136 127 134 136 140 147 152 148 148 138 134 137 141 140 132 116 80 69 74 84 79 86 85 81 67 25 32 70 58 48 44 68 40 39 33 31 49 57 58 51 48
141 149 156 168 176 161 158 161 151 150 154 151 150 146 147 150 145 142 145 145 138 131 125 112 85 73 69 70 62 75 73 73 62 27 19 61 68 56 50 56 54 35 33 39 40 41 46 60 59
187 192 190 186 194 192 224 174 149 161 167 160 157 152 150 154 155 153 151 135 122 123 117 110 109 93 86 77 68 68 73 67 66 46 18 31 62 67 49 36 46 47 41 42 44 42 39 43 44
216 211 195 193 200 200 212 183 163 173 174 171 172 164 162 165 168 155 144 129 125 121 120 126 123 107 89 84 89 69 76 65 66 56 33 21 38 62 64 28 31 54 43 25 30 53 50 47 40
214 219 214 200 193 205 206 200 178 182 186 182 183 177 175 175 173 160 147 136 133 129 125 128 122 111 108 102 82 70 61 60 67 59 54 32 33 47 55 29 44 48 43 29 30 50 54 51 21
253 253 244 227 203 216 216 213 193 186 190 191 189 190 182 175 170 158 154 153 155 142 128 123 126 114 112 103 98 99 90 76 73 61 54 50 43 43 51 31 44 45 45 30 27 45 43 32 34
242 249 239 219 215 231 228 224 204 195 193 194 194 193 184 170 165 158 159 163 160 142 134 134 128 126 120 108 118 122 109 92 89 66 52 46 49 40 40 45 45 59 56 38 32 43 28 3 26
241 250 248 242 244 239 252 245 217 197 194 190 197 192 185 179 173 166 165 164 157 151 152 146 136 129 123 127 105 90 73 52 83 91 67 48 57 52 41 40 38 54 74 62 31 51 40 6 354
247 254 262 247 251 246 231 255 230 198 192 188 191 190 184 186 176 166 167 166 166 160 153 152 150 142 139 136 128 133 132 119 112 116 120 93 73 66 47 38 38 47 62 70 24 55 52 43 360
258 260 257 257 258 262 245 251 238 190 190 190 187 187 185 184 181 171 169 169 168 157 155 161 151 144 147 150 138 142 128 129 109 102 113 110 100 84 67 46 46 53 60 75 55 42 32 45 24
252 263 260 251 257 256 244 236 236 205 194 186 183 183 182 186 183 173 165 163 165 155 151 154 148 142 143 146 149 159 135 125 109 107 127 141 122 109 94 79 60 63 60 70 70 60 50 33 28
228 246 251 230 223 235 231 226 205 154 153 167 174 176 176 180 179 169 163 163 161 156 155 157 151 149 153 165 167 163 153 157 154 153 160 145 113 96 87 80 69 71 70 71 70 63 66 56 50
229 226 238 252 250 260 245 229 149 133 127 149 161 161 168 171 170 167 166 164 162 160 161 164 162 159 162 174 173 166 153 157 152 162 159 141 117 115 111 101 84 71 64 72 61 44 43 60 50
247 239 250 272 282 270 225 211 165 154 147 155 159 159 163 170 170 171 166 162 163 166 170 172 166 164 168 178 178 170 153 153 153 168 148 132 134 142 127 124 104 81 65 65 66 54 48 46 28
256 263 264 253 267 262 236 231 197 163 154 147 152 161 165 168 172 171 168 166 169 169 170 171 167 168 169 171 175 160 148 151 152 148 136 129 127 124 134 126 111 100 93 86 72 64 64 89 63
238 241 249 261 259 262 254 257 106 127 140 151 149 148 160 167 170 170 167 166 166 164 166 171 172 169 167 172 167 152 152 155 160 154 148 142 147 156 147 133 119 109 108 105 97 95 67 72 69
255 251 241 245 260 264 263 244 152 129 134 133 135 137 145 157 162 161 158 157 161 166 169 173 176 172 168 171 164 154 156 153 160 157 154 158 155 149 136 121 116 123 122 117 115 113 96 75 60
Height
1501 1502 1503 1505 1506 1509 1511 1508 1505 1505 1506 1508 1508 1508 1513 1517 1522 1532 1532 1530 1530 1528 1527 1527 1528 1528 1528 1528 1528 1528 1528 1529 1529 1529 1529 1529 1529 1528 1528 1528 1528 1528 1528 1528 1528 1528 1528 1528 1529
1502 1504 1505 1505 1508 1515 1516 1509 1508 1509 1509 1509 1510 1512 1515 1521 1525 1529 1530 1531 1531 1530 1529 1529 1529 1530 1530 1530 1530 1530 1530 1530 1530 1530 1530 1530 1530 1530 1530 1530 1530 1530 1530 1530 1530 1530 1530 1530 1530
1503 1504 1506 1504 1506 1513 1516 1510 1509 1510 1510 1511 1513 1516 1520 1526 1528 1530 1532 1532 1532 1532 1531 1531 1531 1531 1532 1531 1531 1531 1532 1532 1532 1532 1532 1532 1532 1532 1532 1532 1532 1532 1532 1531 1531 1531 1531 1531 1531
1505 1506 1506 1508 1511 1508 1509 1510 1509 1511 1512 1513 1515 1520 1526 1529 1530 1531 1533 1533 1533 1533 1533 1533 1533 1533 1533 1533 1533 1533 1533 1533 1534 1534 1534 1534 1534 1534 1534 1534 1534 1533 1533 1533 1533 1533 1533 1533 1533
1506 1506 1507 1511 1510 1508 1508 1509 1510 1512 1513 1515 1517 1524 1529 1531 1531 1533 1534 1535 1535 1535 1535 1535 1535 1535 1535 1535 1535 1535 1535 1535 1535 1536 1536 1536 1536 1536 1536 1535 1535 1535 1535 1535 1535 1535 1535 1535 1535
1507 1504 1511 1515 1512 1509 1509 1510 1512 1513 1516 1518 1521 1525 1531 1533 1533 1534 1535 1536 1537 1537 1537 1537 1537 1537 1537 1537 1537 1537 1537 1537 1538 1538 1538 1538 1538 1538 1537 1537 1537 1537 1537 1537 1537 1537 1537 1537 1537
1508 1506 1509 1510 1513 1513 1512 1512 1514 1515 1517 1520 1522 1526 1532 1534 1535 1535 1537 1538 1538 1539 1539 1539 1539 1539 1539 1539 1539 1539 1540 1540 1540 1540 1540 1540 1540 1540 1540 1539 1539 1539 1539 1539 1539 1539 1539 1539 1539
1507 1507 1508 1509 1513 1514 1513 1514 1516 1518 1520 1522 1523 1526 1532 1534 1535 1537 1538 1539 1540 1540 1541 1541 1542 1542 1541 1541 1541 1542 1542 1542 1542 1542 1542 1542 1542 1542 1542 1542 1541 1541 1541 1541 1541 1541 1541 1541 1541
1507 1510 1513 1511 1513 1514 1513 1515 1518 1520 1521 1523 1525 1527 1531 1534 1536 1538 1539 1540 1541 1542 1542 1543 1543 1543 1543 1543 1543 1543 1544 1544 1544 1544 1545 1544 1544 1545 1544 1544 1544 1543 1543 1543 1543 1543 1543 1543 1543
1507 1513 1513 1509 1509 1512 1514 1516 1518 1520 1522 1525 1528 1531 1533 1535 1537 1538 1539 1541 1542 1543 1544 1544 1545 1545 1545 1546 1545 1545 1546 1546 1546 1547 1547 1547 1547 1547 1547 1546 1546 1546 1546 1546 1546 1546 1545 1545 1545
1507 1511 1510 1510 1512 1513 1515 1517 1519 1520 1523 1525 1529 1531 1534 1536 1538 1539 1540 1541 1543 1544 1544 1545 1546 1546 1546 1547 1547 1547 1548 1548 1548 1548 1548 1549 1549 1549 1548 1548 1548 1548 1548 1548 1548 1547 1548 1548 1548
1508 1509 1511 1512 1514 1515 1516 1518 1520 1522 1525 1527 1529 1532 1534 1536 1538 1540 1541 1542 1543 1544 1545 1546 1547 1547 1548 1548 1548 1548 1549 1549 1549 1549 1549 1550 1550 1550 1550 1550 1550 1550 1550 1550 1550 1550 1550 1550 1550
1509 1511 1513 1515 1516 1517 1518 1520 1522 1524 1526 1528 1530 1533 1535 1536 1538 1540 1541 1542 1543 1544 1545 1546 1547 1548 1548 1548 1549 1549 1550 1550 1550 1550 1551 1550 1551 1551 1551 1551 1551 1551 1551 1551 1551 1551 1551 1551 1551
1510 1512 1514 1515 1516 1518 1519 1521 1523 1526 1527 1529 1530 1533 1535 1537 1538 1540 1541 1542 1543 1544 1545 1546 1548 1549 1549 1549 1550 1550 1551 1551 1551 1551 1552 1552 1552 1552 1552 1552 1552 1552 1553 1553 1553 1552 1553 1552 1552
1512 1513 1515 1516 1516 1517 1519 1522 1522 1525 1527 1528 1530 1533 1535 1537 1538 1539 1541 1542 1543 1544 1546 1546 1548 1549 1549 1550 1551 1551 1552 1552 1552 1552 1553 1553 1552 1553 1553 1553 1553 1553 1554 1554 1554 1554 1554 1554 1554
1511 1514 1519 1516 1515 1516 1521 1526 1522 1524 1526 1528 1530 1532 1534 1536 1538 1539 1541 1542 1543 1545 1546 1547 1548 1549 1550 1551 1551 1552 1552 1552 1553 1553 1553 1553 1554 1553 1554 1554 1554 1554 1555 1555 1555 1555 1555 1555 1555
1512 1518 1519 1516 1512 1513 1517 1522 1521 1522 1524 1527 1529 1531 1534 1535 1537 1539 1540 1542 1543 1545 1546 1547 1548 1549 1550 1551 1552 1552 1553 1553 1553 1554 1554 1554 1554 1554 1554 1555 1555 1555 1555 1555 1556 1556 1556 1556 1556
1516 1515 1514 1514 1511 1511 1515 1518 1518 1520 1522 1524 1527 1529 1531 1534 1536 1538 1540 1541 1543 1545 1546 1547 1548 1549 1550 1551 1552 1553 1553 1554 1554 1555 1555 1555 1555 1555 1555 1555 1556 1556 1556 1556 1556 1556 1557 1557 1557
1507 1510 1513 1510 1507 1510 1513 1515 1515 1517 1520 1522 1524 1526 1528 1531 1534 1536 1538 1541 1543 1544 1545 1547 1548 1549 1550 1551 1552 1553 1553 1554 1554 1555 1555 1555 1555 1556 1556 1556 1556 1556 1556 1557 1557 1557 1557 1558 1558
1506 1511 1512 1509 1505 1508 1511 1512 1511 1513 1516 1518 1520 1523 1525 1528 1532 1535 1537 1539 1541 1543 1545 1546 1548 1549 1550 1551 1552 1553 1554 1554 1554 1555 1555 1555 1556 1556 1556 1556 1556 1557 1557 1557 1557 1557 1558 1558 1558
1507 1510 1510 1511 1507 1506 1510 1514 1510 1509 1511 1515 1518 1520 1523 1526 1529 1532 1535 1538 1540 1542 1544 1546 1547 1548 1549 1550 1552 1553 1554 1554 1555 1555 1555 1555 1556 1556 1556 1557 1557 1557 1557 1557 1558 1558 1558 1558 1559
1510 1504 1505 1507 1513 1515 1512 1524 1511 1505 1508 1510 1514 1517 1520 1523 1526 1530 1533 1536 1539 1541 1543 1545 1547 1548 1549 1550 1551 1552 1553 1554 1555 1555 1555 1556 1556 1556 1556 1557 1557 1557 1557 1557 1558 1558 1558 1558 1559
1504 1502 1504 1506 1509 1513 1509 1517 1512 1501 1506 1507 1510 1513 1517 1521 1524 1527 1531 1534 1537 1540 1542 1544 1546 1547 1548 1550 1551 1552 1553 1554 1555 1555 1556 1556 1556 1556 1556 1557 1557 1557 1557 1557 1558 1558 1558 1559 1559
1502 1504 1505 1505 1511 1522 1509 1513 1514 1501 1500 1501 1505 1509 1513 1518 1521 1525 1529 1532 1535 1538 1540 1542 1544 1546 1547 1549 1550 1551 1552 1553 1554 1555 1555 1556 1556 1556 1557 1557 1557 1557 1558 1558 1558 1558 1558 1559 1559
1503 1514 1524 1525 1526 1519 1500 1505 1505 1493 1492 1496 1500 1505 1510 1514 1518 1522 1526 1529 1533 1535 1538 1541 1543 1544 1546 1548 1549 1550 1551 1552 1553 1554 1555 1556 1556 1556 1557 1557 1557 1557 1558 1558 1558 1558 1559 1559 1559
1502 1508 1524 1531 1525 1513 1500 1504 1497 1489 1491 1494 1498 1502 1507 1511 1516 1520 1523 1527 1530 1533 1536 1539 1541 1543 1545 1546 1548 1549 1550 1552 1553 1554 1554 1555 1556 1556 1556 1557 1557 1557 1558 1558 1558 1558 1558 1559 1559
1502 1503 1501 1510 1510 1514 1506 1499 1493 1489 1491 1494 1497 1501 1505 1509 1513 1517 1521 1524 1528 1531 1534 1537 1539 1541 1543 1545 1547 1548 1549 1551 1552 1553 1554 1555 1555 1556 1556 1557 1557 1557 1557 1557 1558 1558 1558 1558 1559
1496 1497 1502 1510 1520 1522 1512 1505 1502 1493 1492 1493 1496 1499 1503 1507 1511 1515 1519 1522 1526 1529 1532 1535 1537 1539 1541 1543 1545 1546 1547 1549 1551 1552 1553 1554 1555 1555 1556 1556 1557 1557 1557 1557 1557 1558 1558 1558 1558
1498 1499 1500 1503 1505 1517 1522 1512 1488 1489 1490 1492 1495 1498 1501 1505 1509 1513 1516 1520 1524 1527 1530 1533 1536 1538 1540 1541 1543 1545 1546 1548 1550 1551 1552 1553 1554 1554 1555 1556 1556 1556 1556 1557 1557 1557 1558 1558 1558
1493 1495 1499 1512 1510 1504 1510 1509 1484 1486 1489 1491 1495 1498 1501 1504 1508 1511 1515 1518 1522 1525 1528 1531 1533 1536 1538 1540 1541 1543 1545 1546 1548 1549 1551 1552 1553 1554 1555 1555 1556 1556 1556 1557 1557 1557 1557 1557 1558